EW7262 Weather Reports


time (UTC)temp
C
wind
direction
speed
KPH
gust
KPH
rain 1hr
cm
rain 24hr
cm
rain mn
cm
humidity
%
barometer
mb
20260906214527 32 143 0.0 0.0 0.00 0.00 0.00 22 1000.8
20260906213025 32 173 0.0 0.0 0.00 0.00 0.00 22 1001.1
20260906211519 33 161 0.0 0.0 0.00 0.00 0.00 22 1001.2
20260906210019 33 142 0.0 0.0 0.00 0.00 0.00 22 1001.1
20260906204517 32 169 0.0 0.0 0.00 0.00 0.00 23 1001.3
20260906203014 32 140 0.0 0.0 0.00 0.00 0.00 23 1001.6
20260906201512 32 157 0.0 0.0 0.00 0.00 0.00 23 1001.8
20260906200010 32 145 0.0 0.0 0.00 0.00 0.00 25 1002.0
20260906194508 32 227 0.0 0.0 0.00 0.00 0.00 23 1002.0
20260906193006 32 163 0.0 0.0 0.00 0.00 0.00 27 1002.3
20260906191504 31 144 0.0 0.0 0.00 0.00 0.00 28 1002.4
20260906190113 31 182 0.0 0.0 0.00 0.00 0.00 31 1002.6
20260906184556 30 178 0.0 0.0 0.00 0.00 0.00 32 1002.7
20260906183052 30 157 0.0 0.0 0.00 0.00 0.00 35 1002.9
20260906181547 28 117 0.0 0.0 0.00 0.00 0.00 38 1003.1
20260906180043 28 117 0.0 0.0 0.00 0.00 0.00 41 1003.5
20260906174542 27 360 0.0 0.0 0.00 0.00 0.00 43 1003.7
20260906173034 27 150 0.0 0.0 0.00 0.00 0.00 44 1003.9
20260906171530 26 132 0.0 0.0 0.00 0.00 0.00 47 1004.1
20260906170031 26 360 0.0 0.0 0.00 0.00 0.00 49 1004.3
20260906164521 25 155 0.0 0.0 0.00 0.00 0.00 50 1004.5
20260906163017 25 132 0.0 0.0 0.00 0.00 0.00 52 1004.5
20260906161520 24 360 0.0 0.0 0.00 0.00 0.00 54 1004.5
20260906160009 23 360 0.0 0.0 0.00 0.00 0.00 56 1004.7
20260906154510 23 159 0.0 0.0 0.00 0.00 0.00 57 1004.7
20260906153105 22 155 0.0 0.0 0.00 0.00 0.00 59 1004.8
20260906151557 22 360 0.0 0.0 0.00 0.00 0.00 61 1004.8
20260906150058 21 360 0.0 0.0 0.00 0.00 0.00 62 1004.8
20260906144548 20 360 0.0 0.0 0.00 0.00 0.00 66 1004.9
20260906143046 19 360 0.0 0.0 0.00 0.00 0.00 70 1004.9
20260906141543 18 155 0.0 0.0 0.00 0.00 0.00 73 1004.8
20260906140037 17 161 0.0 0.0 0.00 0.00 0.00 77 1004.8
20260906134543 17 360 0.0 0.0 0.00 0.00 0.00 79 1004.9
20260906133047 16 360 0.0 0.0 0.00 0.00 0.00 83 1004.8
20260906131523 15 360 0.0 0.0 0.00 0.00 0.00 86 1004.7
20260906130019 14 188 0.0 0.0 0.00 0.00 0.00 86 1004.6
20260906124517 14 360 0.0 0.0 0.00 0.00 0.00 86 1004.5
20260906123022 15 360 0.0 0.0 0.00 0.00 0.00 86 1004.3
20260906121514 14 180 0.0 0.0 0.00 0.00 0.00 87 1004.2
20260906120013 14 173 0.0 0.0 0.00 0.00 0.00 86 1004.1
20260906114511 14 173 0.0 0.0 0.00 0.00 0.00 86 1004.1
20260906113009 14 177 0.0 0.0 0.00 0.00 0.00 85 1004.1
20260906111506 15 360 0.0 0.0 0.00 0.00 0.00 84 1004.1
20260906110004 15 173 0.0 0.0 0.00 0.00 0.00 83 1004.0
20260906104629 16 178 0.0 0.0 0.00 0.00 0.00 82 1003.9
20260906103103 16 360 0.0 0.0 0.00 0.00 0.00 82 1003.8
20260906101558 16 171 0.0 0.0 0.00 0.00 0.00 81 1003.8
20260906100055 16 360 0.0 0.0 0.00 0.00 0.00 80 1003.7
20260906094553 17 152 0.0 0.0 0.00 0.00 0.00 79 1003.7
20260906093108 17 360 0.0 0.0 0.00 0.00 0.00 78 1003.8
20260906091551 17 360 0.0 0.0 0.00 0.00 0.00 78 1004.0
20260906090051 17 157 0.0 0.0 0.00 0.00 0.00 78 1004.0
20260906084549 17 360 0.0 0.0 0.00 0.00 0.00 75 1003.8
20260906083049 17 360 0.0 0.0 0.00 0.00 0.00 75 1004.0
20260906081548 17 360 0.0 0.0 0.00 0.00 0.00 73 1003.8
20260906080043 17 360 0.0 0.0 0.00 0.00 0.00 72 1003.9
20260906074542 17 155 0.0 0.0 0.00 0.00 0.00 72 1003.9
20260906073040 17 360 0.0 0.0 0.00 0.00 0.00 71 1003.9
20260906071539 17 360 0.0 0.0 0.00 0.00 0.00 71 1003.7
20260906070036 18 170 0.0 0.0 0.00 0.00 0.00 68 1003.7
20260906064533 18 360 0.0 0.0 0.00 0.00 0.00 67 1003.8
20260906063031 19 165 0.0 0.0 0.00 0.00 0.00 65 1003.9
20260906061527 20 169 0.0 0.0 0.00 0.00 0.00 62 1004.0
20260906060028 20 360 0.0 0.0 0.00 0.00 0.00 60 1004.3
20260906054521 21 145 0.0 0.0 0.00 0.00 0.00 57 1004.3
20260906053020 21 146 0.0 0.0 0.00 0.00 0.00 53 1004.3
20260906051518 21 360 0.0 0.0 0.00 0.00 0.00 51 1004.2
20260906050018 21 150 0.0 0.0 0.00 0.00 0.00 51 1004.0
20260906044521 21 157 0.0 0.0 0.00 0.00 0.00 50 1003.9
20260906043017 21 360 0.0 0.0 0.00 0.00 0.00 49 1003.8
20260906041522 21 150 0.0 0.0 0.00 0.00 0.00 48 1003.9
20260906040017 21 360 0.0 0.0 0.00 0.00 0.00 46 1003.8
20260906034512 21 360 0.0 0.0 0.00 0.00 0.00 43 1003.9
20260906033012 22 153 0.0 0.0 0.00 0.00 0.00 41 1003.8
20260906031511 22 148 0.0 0.0 0.00 0.00 0.00 40 1003.8
20260906030010 23 360 0.0 0.0 0.00 0.00 0.00 38 1003.7
20260906024510 23 155 0.0 0.0 0.00 0.00 0.00 37 1003.5
20260906023018 25 165 0.0 0.0 0.00 0.00 0.00 35 1003.4
20260906021513 25 157 0.0 0.0 0.00 0.00 0.00 33 1003.2
20260906020008 25 360 0.0 0.0 0.00 0.00 0.00 28 1003.1
20260906014507 26 360 0.0 0.0 0.00 0.00 0.00 25 1002.7
20260906013006 26 360 0.0 0.0 0.00 0.00 0.00 24 1002.7
20260906011506 27 132 0.0 0.0 0.00 0.00 0.00 24 1002.6
20260906010005 27 132 0.0 0.0 0.00 0.00 0.00 23 1002.5
20260906004506 29 132 0.0 0.0 0.00 0.00 0.00 21 1002.4
20260906003003 30 128 0.0 0.0 0.00 0.00 0.00 20 1002.5
20260906001503 30 144 0.0 0.0 0.00 0.00 0.00 19 1002.5
20260906000003 31 116 0.0 0.0 0.00 0.00 0.00 19 1002.5
20260905234503 31 148 0.0 0.0 0.00 0.00 0.00 18 1002.6
20260905233101 31 117 0.0 0.0 0.00 0.00 0.00 18 1002.5
20260905233003 31 116 0.0 0.0 0.00 0.00 0.00 18 1002.5
20260905231559 32 279 0.0 0.0 0.00 0.00 0.00 18 1002.4
20260905230126 32 244 0.0 0.0 0.00 0.00 0.00 17 1002.3
20260905224557 32 222 0.0 0.0 0.00 0.00 0.00 17 1002.3
20260905223057 32 180 0.0 0.0 0.00 0.00 0.00 17 1002.4
20260905221600 32 167 0.0 0.0 0.00 0.00 0.00 18 1002.5
20260905220056 32 159 0.0 0.0 0.00 0.00 0.00 18 1002.7